Wind_Speed
39 37 37 37 39 41 41 41 40 38 37 36 34 32 31 31 31 32 33 35 36 38 40 41 43 45 46 48 49 51 52 52 52 53 54 55 55 54 53 53 53 53 53 53 53 53 54 54 55 57 59 60 61 62 63 64 65 65 65 65 65 64 62 61 61 61 62 63 64 64 65 65 66 67 67 68 68 67 68 68 69 70 70 69 68 68 69 70
37 36 35 35 35 37 39 40 39 37 36 34 32 31 30 31 33 34 36 37 39 41 43 44 45 48 49 50 52 53 53 54 54 55 55 54 54 53 53 54 54 54 54 54 55 55 56 57 58 60 62 63 63 63 61 60 58 56 54 53 52 49 47 47 47 47 47 49 50 50 51 51 53 53 53 54 54 52 53 55 56 57 57 56 56 57 58 59
35 34 33 34 34 36 38 38 37 35 33 32 31 32 32 33 35 37 39 40 42 43 45 46 47 50 52 53 54 54 55 55 55 55 54 53 53 53 54 55 55 55 55 56 56 57 59 60 61 61 61 60 58 54 51 47 45 42 41 41 40 38 38 38 38 38 39 40 41 41 41 42 43 42 42 44 45 43 42 45 47 48 48 48 47 48 49 51
33 33 33 33 34 35 35 35 35 34 32 32 32 34 34 36 39 40 42 42 44 45 46 48 49 51 53 54 55 55 55 54 53 53 53 53 53 54 55 55 55 56 56 57 58 59 60 60 59 56 53 49 45 41 37 35 34 33 34 35 36 35 35 35 36 36 37 38 38 38 38 40 40 38 39 41 42 42 41 42 43 45 46 47 46 46 47 48
32 32 32 32 32 33 33 34 34 34 34 34 35 37 38 40 42 43 44 44 46 48 49 50 51 53 54 55 54 53 52 51 51 51 53 54 55 55 55 56 56 57 58 59 59 57 55 52 48 44 39 36 33 31 30 30 30 31 32 33 35 36 36 36 37 38 39 39 39 39 41 43 42 40 41 43 44 45 45 45 45 47 48 50 50 49 49 49
31 31 31 31 32 32 33 33 34 35 36 37 38 40 41 43 44 44 46 47 48 50 51 52 53 54 53 52 50 49 49 50 51 53 54 55 55 56 56 57 57 57 56 54 51 47 43 39 35 32 30 29 28 28 29 30 30 32 33 34 36 38 38 39 40 41 42 42 41 41 44 46 46 45 45 46 47 48 48 49 49 50 52 53 54 54 54 54
30 30 31 31 31 32 33 34 35 36 37 39 40 42 43 44 45 46 48 49 50 51 52 53 53 51 49 47 47 48 49 51 53 53 54 55 56 56 56 56 53 50 46 41 37 34 31 29 28 27 27 28 28 29 30 31 32 34 36 37 39 41 42 43 44 45 46 46 44 44 46 49 50 50 50 50 51 52 52 53 53 54 56 56 57 58 59 59
29 30 31 31 31 32 33 34 35 37 39 40 42 43 44 45 46 48 49 50 51 52 52 50 48 45 45 46 47 49 51 52 53 54 55 56 55 53 50 46 42 37 33 30 28 27 26 26 26 26 27 29 30 31 33 34 35 37 39 41 43 45 46 47 48 49 50 50 48 47 49 52 54 55 56 56 56 57 57 57 58 58 59 60 61 62 63 64
30 30 31 31 31 32 33 35 36 38 40 42 43 44 45 46 47 48 49 50 50 49 47 44 43 44 46 48 49 51 52 53 54 55 53 51 46 42 37 34 31 28 26 25 25 25 25 26 27 28 30 31 33 35 36 37 39 40 43 45 46 48 50 51 52 53 55 55 53 51 53 55 58 60 61 62 63 63 63 63 63 63 64 65 66 67 68 69
30 30 31 31 31 33 34 36 38 40 41 42 43 45 46 47 48 48 47 46 44 42 42 42 44 46 47 49 50 51 53 52 51 48 43 38 33 30 27 26 25 24 24 25 25 26 27 29 30 32 33 35 37 38 40 42 43 44 46 49 51 52 54 55 57 58 59 60 59 57 57 59 62 65 67 68 68 68 69 69 69 69 70 71 72 73 73 74
30 30 31 31 32 34 36 38 40 41 42 43 44 45 45 45 45 43 42 40 40 41 42 44 46 47 48 50 50 49 47 43 39 35 31 27 24 23 23 23 23 24 25 27 28 29 31 32 34 36 37 39 41 43 45 46 48 49 50 52 55 57 59 60 61 62 64 65 64 63 62 63 66 70 72 73 73 74 75 75 76 76 76 77 77 78 79 80
30 30 31 32 34 36 38 39 40 41 42 42 42 42 41 40 38 38 38 39 41 42 44 45 47 47 47 45 42 38 34 30 27 25 23 22 21 21 22 23 25 26 28 30 31 33 34 36 38 40 42 44 46 48 49 51 53 54 56 57 58 60 62 64 65 66 67 68 68 68 66 67 70 73 75 76 77 78 79 80 80 81 82 82 83 83 84 85
29 31 32 34 35 37 38 39 39 39 39 38 37 36 35 35 36 38 39 40 42 43 44 45 44 41 37 32 28 25 22 21 21 21 21 21 22 23 24 26 28 30 32 33 35 37 39 41 42 45 47 48 50 51 53 55 57 58 60 61 62 63 64 66 68 69 70 71 72 72 71 71 73 75 77 79 81 82 82 83 84 85 86 87 87 88 89 90
30 31 33 34 35 36 36 36 35 33 32 32 32 33 34 36 37 38 40 41 42 42 40 36 32 27 23 20 19 18 17 18 19 20 22 23 25 26 28 30 32 34 36 38 40 41 43 45 46 48 50 52 53 54 56 58 59 61 63 64 66 68 69 69 71 73 74 75 75 76 75 75 76 78 79 81 83 85 86 87 87 88 89 90 91 92 93 93
29 30 31 31 31 31 30 29 29 29 30 31 33 34 35 36 38 38 39 38 36 32 28 24 20 17 16 15 15 16 17 19 21 23 25 27 29 30 32 34 36 38 40 42 43 45 46 48 50 52 53 55 56 58 59 60 62 63 65 66 69 70 72 74 74 75 76 77 78 79 79 79 79 80 82 83 85 87 89 90 91 92 93 94 95 96 96 96
25 26 26 26 26 26 26 27 28 29 31 32 33 34 35 36 36 35 32 29 25 21 17 15 13 13 13 14 16 18 20 23 25 27 29 31 32 34 36 38 39 41 43 45 46 48 50 52 53 55 56 58 59 60 62 63 64 65 66 68 70 71 73 75 77 77 78 78 79 80 80 80 81 82 82 84 85 86 88 90 91 92 93 94 95 96 96 97
22 22 23 24 24 25 26 27 28 30 31 32 33 33 32 31 28 25 21 18 15 12 11 11 11 13 15 17 19 22 24 27 29 31 33 34 35 37 39 40 42 44 46 48 49 51 53 54 55 57 58 59 60 62 63 64 66 67 68 69 70 72 73 73 75 77 78 78 78 79 79 79 80 81 82 83 84 86 88 89 91 92 93 94 95 95 95 95
21 22 23 23 24 25 26 27 28 29 30 29 28 26 23 20 18 15 12 10 9 9 10 12 14 16 18 21 23 26 28 30 32 33 35 37 39 40 42 44 45 47 48 50 51 53 54 55 57 58 59 60 61 62 63 64 65 66 67 67 68 71 72 72 73 74 75 76 78 78 79 80 81 82 83 84 85 86 88 90 91 93 94 96 97 97 97 97
21 21 22 23 24 25 25 26 25 24 23 21 19 17 14 12 10 8 7 7 8 10 13 15 18 20 22 24 26 28 30 32 34 36 38 40 41 43 44 46 47 48 50 51 52 54 55 56 58 59 60 61 61 62 62 63 64 64 65 66 65 67 70 72 73 74 75 75 77 78 79 80 81 83 84 85 87 88 89 90 92 93 95 96 97 98 98 98
20 21 21 21 21 20 19 18 16 15 13 12 11 10 8 6 5 5 7 10 12 15 17 19 21 23 25 26 28 31 33 35 36 38 40 41 43 44 46 47 48 49 51 52 53 54 55 56 57 58 59 59 60 60 61 62 63 64 65 66 66 66 69 72 73 74 75 75 76 77 78 80 82 83 85 87 89 90 91 92 93 94 96 97 99 99 100 101
18 17 16 15 14 12 10 9 8 8 7 7 6 4 3 3 6 8 11 13 15 18 20 21 24 26 27 29 31 33 35 36 38 40 41 43 44 45 46 47 48 49 51 52 52 53 54 55 56 57 58 59 59 61 62 63 64 65 66 67 67 67 68 71 74 75 77 77 77 78 79 80 82 84 86 89 91 92 93 94 95 96 98 99 101 102 103 103
12 11 9 8 7 6 6 6 6 5 4 3 1 2 5 7 10 12 14 16 17 20 22 24 26 28 30 31 33 35 36 38 39 41 42 43 44 45 46 47 48 49 50 51 51 52 53 54 55 56 58 59 60 62 64 64 65 66 67 67 68 69 69 70 73 76 78 78 79 80 79 81 83 84 87 89 91 93 94 95 97 98 99 101 102 103 104 105
10 10 10 9 9 9 8 7 5 3 1 2 4 6 8 11 12 14 16 18 20 22 24 26 28 30 31 33 34 36 37 38 40 41 42 43 44 45 46 46 47 48 49 50 51 52 54 55 56 57 59 60 61 63 65 66 67 68 68 69 70 71 71 71 72 74 78 80 81 81 80 80 82 84 87 90 91 93 94 96 97 98 100 101 102 104 104 104
14 14 13 12 11 9 7 5 4 4 5 6 7 9 11 13 14 16 18 20 22 24 25 27 29 31 32 33 35 36 37 38 39 40 40 41 42 43 44 45 46 48 49 51 52 54 54 56 57 59 60 61 61 62 64 66 68 69 69 70 71 72 73 74 74 74 77 80 83 83 81 80 82 85 88 90 92 93 95 96 97 98 100 101 102 103 103 103
16 15 14 12 10 8 6 5 5 5 6 8 9 10 12 14 16 18 20 22 24 25 26 28 30 31 33 34 35 35 36 36 37 38 39 40 41 42 44 46 47 48 50 52 53 54 56 57 58 59 60 61 62 62 63 64 66 67 68 69 70 71 72 74 75 75 75 78 81 84 83 80 79 83 88 91 92 93 95 96 98 99 100 101 102 102 103 104
15 13 12 9 8 6 5 5 5 6 8 9 11 13 14 16 18 20 21 23 25 26 28 29 31 32 33 33 33 33 34 35 36 37 38 39 41 43 45 46 48 49 51 53 54 55 57 58 59 60 61 62 62 62 63 64 65 66 67 68 69 71 71 72 73 74 74 76 79 82 84 82 79 81 87 90 92 94 96 97 99 100 102 103 104 104 105 107
13 11 9 7 6 5 4 5 6 8 10 12 14 15 17 18 20 21 22 23 26 28 29 30 31 31 31 31 31 31 32 34 36 38 39 41 43 44 45 47 48 50 51 53 54 55 56 57 58 59 61 62 62 62 62 64 64 65 66 66 67 68 69 70 71 72 72 74 78 81 83 83 80 81 86 89 92 95 96 98 100 101 103 104 105 106 108 109
10 8 7 6 5 5 6 7 9 11 13 15 16 18 19 21 22 22 23 25 27 29 29 29 29 29 29 30 31 32 33 35 37 39 41 42 43 43 44 45 47 49 50 52 53 54 55 56 57 58 60 61 61 61 62 63 64 64 64 65 65 66 67 68 69 70 71 72 76 80 82 83 81 81 87 89 91 94 95 97 99 101 102 103 104 106 107 107
8 6 6 6 7 9 10 11 13 14 16 17 19 20 22 23 22 23 24 26 28 28 27 27 27 27 28 29 31 32 34 35 37 38 39 39 41 43 44 46 47 48 50 52 53 54 54 55 56 57 59 60 61 62 62 63 63 63 63 64 65 66 66 67 68 69 69 70 74 78 81 84 82 82 86 89 91 92 93 95 96 98 99 100 101 101 101 102
8 8 9 10 11 12 13 14 16 17 18 19 21 22 22 22 22 24 25 26 25 25 25 25 26 27 28 29 31 33 34 35 36 36 38 40 43 46 48 50 51 52 53 53 53 54 55 55 56 57 58 59 60 61 62 62 62 62 62 62 62 63 64 66 67 67 67 67 71 75 78 82 85 84 85 87 88 90 91 92 93 94 95 95 95 95 95 94
11 12 12 13 14 15 16 17 18 18 19 21 22 22 22 22 23 23 24 23 23 24 24 25 27 28 30 31 32 33 34 34 36 38 42 45 48 50 51 52 54 55 56 56 56 56 55 55 55 56 56 56 57 59 61 61 62 63 63 63 61 61 61 62 64 64 64 65 69 73 74 78 84 85 83 83 85 86 88 89 90 90 90 90 89 89 88 87
13 13 14 15 16 17 17 17 18 19 21 21 22 22 22 22 22 22 21 22 23 24 25 27 29 30 31 32 32 32 33 35 38 42 45 47 47 48 48 49 50 51 53 54 56 56 57 56 56 56 55 56 56 57 59 61 62 63 64 64 63 62 60 60 61 60 60 62 68 73 73 75 81 84 82 82 82 83 84 86 86 86 85 84 85 85 84 84
14 16 16 17 17 18 17 18 20 22 22 22 22 22 22 22 21 20 21 22 24 26 27 29 30 31 31 32 32 33 35 38 42 44 45 46 46 47 48 49 50 50 51 52 55 56 57 56 56 56 56 57 57 58 59 61 62 65 67 68 69 69 67 67 67 65 62 61 67 74 76 77 81 82 80 80 79 79 79 80 80 80 80 81 81 82 82 82
17 17 17 17 18 18 19 21 22 22 21 21 22 22 22 20 20 21 23 25 26 28 28 28 28 29 30 32 34 36 39 42 44 45 46 47 48 50 51 52 52 53 53 55 56 57 57 57 56 57 58 59 60 61 63 65 66 69 72 74 76 78 78 78 78 77 73 69 69 75 79 84 86 83 80 80 79 80 80 79 78 78 78 79 78 79 81 82
17 16 16 17 18 19 22 23 22 21 21 22 22 21 20 20 22 24 25 27 27 28 27 28 28 29 31 34 37 40 42 43 44 46 48 50 51 52 53 54 55 56 56 57 58 60 62 62 61 62 63 63 64 67 69 71 72 73 76 78 80 82 82 82 83 83 82 78 76 77 80 87 92 87 82 82 83 85 85 82 81 80 79 78 76 77 79 80
17 16 17 19 20 23 24 23 21 21 22 22 21 21 21 23 25 26 27 27 28 28 28 30 32 33 36 38 40 42 43 45 47 49 52 54 55 56 57 57 58 59 60 60 61 62 64 67 67 68 69 70 70 72 74 76 77 77 79 81 83 84 85 85 84 83 83 80 79 79 81 87 94 91 84 84 86 88 87 84 83 81 77 74 73 74 76 77
17 17 19 22 25 26 24 22 21 22 22 22 22 22 23 25 26 27 27 28 28 29 31 34 36 37 39 40 41 43 46 48 51 53 55 57 58 59 60 61 62 62 63 63 64 65 66 69 71 72 73 74 75 76 78 80 82 82 83 84 85 86 87 89 89 86 83 81 78 79 83 89 96 94 88 88 92 93 88 84 82 79 74 70 70 72 72 73
19 20 24 26 27 25 23 22 22 21 22 23 23 23 25 27 27 28 28 29 31 33 35 36 38 38 39 40 42 45 48 51 53 54 56 57 59 61 62 63 64 65 66 66 67 68 69 70 73 75 76 78 79 80 81 83 84 85 86 87 88 88 88 91 94 93 90 86 80 77 83 93 97 96 93 94 97 96 89 84 81 77 71 68 69 70 69 70
22 25 27 27 26 24 22 22 23 23 24 24 24 25 27 28 28 29 30 31 34 35 37 38 39 39 41 43 45 47 49 51 53 55 57 59 60 62 64 65 66 67 68 69 69 71 71 72 74 77 79 80 82 82 83 84 85 86 86 87 87 88 89 89 92 95 94 92 86 78 81 94 100 96 95 97 98 97 90 83 78 73 69 68 70 69 66 66
25 27 28 27 25 22 21 23 25 24 24 24 25 27 28 29 30 31 32 34 35 36 38 38 40 41 44 45 47 49 51 53 55 57 59 61 62 64 65 66 67 68 69 70 72 73 73 74 75 76 79 81 82 83 84 85 86 86 86 87 88 89 90 90 90 93 95 95 93 85 83 94 102 98 95 98 99 96 90 82 76 71 68 68 69 68 64 63
27 28 27 26 22 20 23 26 25 23 24 25 26 28 29 31 32 32 34 35 36 38 39 40 42 43 45 47 49 51 54 56 58 60 62 63 64 65 67 68 69 70 71 72 74 74 75 76 76 77 78 81 83 84 85 86 87 87 88 89 90 91 92 92 91 93 95 97 98 93 88 95 104 101 98 100 100 97 89 80 72 69 68 68 66 64 62 61
29 28 26 23 21 23 26 25 22 24 25 26 27 29 31 32 32 33 35 36 38 39 40 42 43 44 46 49 52 55 57 59 60 62 64 65 66 67 69 70 71 73 74 74 75 76 76 77 77 78 79 81 84 84 85 86 87 88 89 90 91 92 93 95 95 95 96 97 99 95 88 92 101 102 99 100 99 96 87 77 70 67 67 67 63 60 60 60
28 27 24 23 23 25 25 23 23 25 26 26 30 32 31 32 33 35 37 38 40 41 42 43 44 46 49 52 55 57 59 61 63 64 66 67 69 70 72 73 74 75 76 76 77 77 78 79 80 79 79 80 82 83 83 84 86 87 89 90 92 93 94 95 97 97 95 97 101 97 87 88 96 98 97 97 97 92 83 74 69 66 66 66 62 57 55 56
27 25 23 23 24 25 24 23 25 26 26 29 32 31 31 32 34 36 38 40 41 42 43 45 47 49 52 55 57 59 61 63 64 66 68 70 72 73 75 76 76 77 77 78 78 79 81 83 85 85 84 84 85 87 87 87 88 90 91 93 94 95 96 96 96 96 93 93 100 100 90 86 91 95 95 95 94 89 81 73 70 67 64 62 58 54 52 52
26 24 23 23 24 24 23 25 26 27 29 31 31 30 31 33 35 38 39 40 42 43 45 47 49 52 54 57 59 62 64 66 67 69 71 73 75 76 77 78 79 79 80 80 81 82 83 85 89 91 92 93 95 96 96 95 95 95 96 97 97 98 98 98 99 97 93 91 96 101 95 86 86 91 92 94 93 87 79 73 71 68 63 58 53 50 49 49
23 22 23 23 23 23 24 26 27 29 31 31 31 31 33 35 37 39 40 40 42 45 47 49 52 53 56 58 61 64 66 68 70 72 74 75 77 78 79 80 81 81 82 82 82 83 84 85 89 93 95 96 98 100 100 99 98 98 98 98 98 99 100 101 102 101 97 92 90 95 98 92 88 90 93 94 92 87 79 72 68 64 60 56 52 50 48 48
22 22 22 22 23 24 25 26 28 30 31 31 32 33 35 37 39 40 40 41 43 46 48 51 52 54 56 59 62 65 68 70 72 74 76 78 79 80 81 82 82 82 83 83 83 84 85 86 87 90 93 94 96 98 99 99 99 99 100 100 100 100 100 101 103 103 101 97 90 89 94 94 92 92 95 96 94 88 79 71 66 63 59 54 52 50 48 48
22 22 22 22 23 24 25 27 30 31 32 33 34 35 37 38 39 40 41 43 45 48 50 51 53 55 58 60 63 66 68 71 74 76 78 79 80 81 82 82 82 83 83 83 84 85 86 86 87 88 90 92 94 97 97 97 98 100 101 101 100 100 100 100 103 103 102 101 98 93 93 95 95 95 94 95 93 87 78 71 67 64 61 57 54 52 49 48
22 22 22 22 23 24 26 28 30 32 33 34 35 37 38 39 40 41 43 45 47 49 50 52 55 57 60 62 65 67 68 70 73 75 77 78 79 80 81 82 82 83 83 84 85 86 86 87 87 88 89 91 93 96 97 97 98 99 101 101 100 100 101 101 102 102 100 101 103 101 98 97 97 96 92 90 91 86 78 73 70 67 62 59 56 53 50 48
22 21 22 22 23 25 28 29 31 33 34 35 36 37 39 40 41 42 44 46 48 50 53 55 58 60 62 65 67 68 70 72 74 75 76 77 78 80 81 82 83 84 84 85 87 88 88 88 88 88 89 90 92 95 97 98 98 100 101 100 100 100 100 102 105 104 100 97 98 100 99 96 94 93 89 88 90 86 77 72 72 69 65 60 56 53 50 48
21 21 21 23 24 27 28 29 31 33 34 35 37 38 39 40 42 43 45 48 51 53 56 59 61 64 65 67 69 71 72 74 75 76 77 78 79 81 82 83 84 85 86 87 88 89 89 89 89 88 89 91 93 95 97 99 99 101 101 101 101 101 100 103 107 108 106 102 97 95 94 92 90 86 81 81 86 85 75 68 67 66 65 63 59 54 52 49
21 20 21 23 26 28 28 29 30 32 34 36 36 38 39 41 42 44 47 51 54 57 60 63 64 66 68 69 71 72 73 74 76 78 79 81 82 83 84 85 87 88 89 89 90 90 90 90 91 91 91 92 94 97 99 100 99 101 104 104 105 105 103 104 107 109 108 107 103 98 94 90 87 84 78 77 82 84 76 68 64 60 59 60 59 55 53 50
Wind_Direction
205 209 213 217 220 223 225 226 229 233 237 241 245 249 256 264 270 276 280 283 286 287 289 290 292 293 294 295 295 295 295 295 296 296 296 295 295 295 295 294 293 293 293 293 293 293 293 292 291 291 290 289 289 288 287 286 285 284 283 281 281 280 280 279 278 277 276 276 276 275 275 276 276 276 276 275 275 275 275 275 275 274 274 274 273 272 271 270
206 211 215 218 220 222 223 226 232 239 245 249 253 258 265 271 276 279 282 284 286 288 289 290 292 293 293 293 293 294 295 295 295 294 294 294 294 294 294 294 294 294 295 295 295 295 294 293 292 292 291 290 289 288 288 287 286 285 284 283 283 283 282 281 281 280 280 279 279 279 279 280 279 280 281 280 279 278 278 277 276 275 275 274 274 273 271 270
208 212 217 220 222 223 226 231 238 246 252 257 262 266 271 275 277 279 281 283 285 287 289 290 291 292 292 292 293 294 295 295 294 293 293 294 294 294 294 294 294 295 295 295 295 295 294 293 293 292 291 290 290 289 289 288 287 287 287 286 286 286 285 284 284 284 283 283 283 284 285 284 283 284 285 284 283 282 280 279 279 277 276 274 273 272 271 270
210 214 219 223 226 229 233 238 244 251 257 262 266 270 273 275 276 278 281 283 285 287 288 289 290 290 291 293 294 294 293 293 292 293 294 294 294 293 293 294 294 295 295 295 295 294 293 293 292 292 291 291 291 291 290 289 289 289 289 289 289 289 288 287 287 286 285 285 287 288 288 286 286 287 287 286 287 286 284 283 283 282 280 278 275 273 271 270
213 218 222 226 231 235 239 243 249 254 259 264 267 270 272 274 275 278 281 283 284 286 287 289 290 292 292 293 292 292 291 292 292 293 293 293 293 293 294 294 294 295 295 295 294 293 293 292 292 292 292 292 291 291 290 290 289 289 289 289 290 290 289 289 289 288 288 288 289 291 290 288 288 289 288 287 287 287 286 284 283 282 281 280 278 276 275 273
216 221 226 231 235 239 244 248 252 257 261 264 267 270 272 274 277 280 281 283 284 286 288 290 291 292 291 290 290 290 291 292 292 292 292 292 293 293 294 294 295 295 294 293 293 292 292 292 292 291 291 292 292 291 290 290 290 290 289 289 289 290 289 289 289 288 288 288 289 289 289 288 289 288 286 285 285 284 283 282 280 279 278 278 277 276 275 274
219 224 229 234 238 243 247 251 255 258 262 265 267 270 273 275 278 280 282 284 286 288 289 289 290 289 289 289 289 290 291 291 291 291 291 291 292 293 294 294 294 293 293 292 292 291 290 290 290 291 291 291 291 291 290 290 290 290 290 290 289 289 288 288 287 286 286 286 286 287 286 286 287 285 284 282 281 280 278 277 277 276 276 275 275 275 274 273
222 227 231 236 240 245 249 253 257 260 263 266 269 272 274 277 279 282 284 286 287 287 288 288 287 287 288 289 289 290 290 290 290 290 290 291 292 293 294 293 293 292 291 290 288 288 288 288 289 290 290 290 290 290 290 290 290 289 289 289 288 287 287 286 286 285 285 285 285 285 284 284 284 283 282 281 279 278 277 276 275 274 274 274 273 273 273 272
225 229 234 239 244 248 253 257 261 264 266 269 271 274 276 279 282 284 285 285 286 286 286 286 286 287 288 289 289 289 289 289 290 290 291 292 292 293 293 292 290 289 288 287 287 287 288 289 289 290 290 290 290 290 289 288 287 287 287 286 285 285 285 285 285 284 284 284 284 283 283 282 282 282 281 280 279 278 278 277 276 275 274 274 273 272 272 271
228 234 239 243 248 253 257 261 264 266 269 271 274 276 279 281 282 283 283 283 283 283 284 285 286 287 287 288 288 288 288 289 290 290 291 291 292 292 290 288 287 288 288 289 289 290 291 291 291 291 291 290 290 289 288 287 286 285 285 285 285 284 285 285 286 286 286 286 287 286 285 284 283 283 282 281 281 280 280 279 278 277 275 274 273 273 272 271
233 238 243 248 253 257 260 263 265 268 271 273 276 278 279 280 281 281 280 280 281 282 284 285 286 286 287 287 287 288 288 289 289 290 290 289 289 288 287 287 288 290 291 292 292 293 293 293 292 291 290 289 289 288 287 287 287 287 287 287 287 288 288 288 288 288 288 287 287 286 285 284 283 283 282 282 282 282 281 281 280 278 277 276 275 274 273 272
237 243 248 252 255 258 261 264 267 270 272 274 276 277 278 278 278 277 278 280 282 283 284 285 286 286 287 287 287 288 288 289 289 288 287 286 286 287 289 291 293 294 295 295 294 294 293 292 292 291 290 290 291 290 291 291 291 290 290 289 288 287 287 287 287 286 286 285 285 284 283 282 281 280 281 281 281 280 280 279 279 278 277 276 275 274 273 272
241 246 249 253 256 259 262 265 268 270 272 273 274 274 274 275 276 277 279 281 283 284 284 285 285 286 286 286 287 287 288 288 288 287 288 290 292 294 296 297 297 297 296 295 294 294 294 294 294 293 293 293 292 292 291 290 290 289 288 288 287 285 284 284 284 284 283 283 283 283 282 281 281 280 280 281 280 280 279 278 277 277 276 275 274 273 272 271
242 246 249 253 256 259 262 264 266 268 269 269 270 271 272 274 277 279 281 282 283 283 283 283 283 283 283 284 286 287 289 290 291 294 297 298 299 299 300 300 299 298 297 296 296 296 296 295 294 293 292 291 290 289 288 288 287 287 287 287 287 287 286 285 284 285 285 285 285 284 284 283 282 282 281 281 281 281 280 279 278 277 276 275 274 273 272 271
241 245 249 252 255 257 259 261 262 264 265 267 269 271 274 276 278 280 281 281 281 280 279 278 279 280 282 286 290 294 297 299 301 302 302 302 302 302 302 301 301 300 299 298 297 295 294 292 291 290 289 289 289 288 288 288 288 288 289 289 289 289 290 289 288 288 288 288 288 288 287 287 286 285 284 283 283 282 282 281 280 279 278 277 276 275 274 273
239 242 245 247 249 252 254 257 260 262 265 268 270 273 275 277 278 279 278 277 275 273 273 275 279 285 291 297 302 303 303 303 304 304 304 304 303 302 301 300 299 298 296 295 293 292 291 291 290 290 290 290 290 291 291 291 291 290 290 291 291 291 291 292 292 291 290 290 289 289 289 288 287 286 285 285 284 284 283 282 282 281 280 279 278 277 277 276
233 236 239 243 246 250 254 258 261 264 267 270 272 274 276 276 276 273 270 267 267 270 276 284 292 299 302 303 305 306 306 307 307 306 305 304 302 300 299 297 296 295 294 293 293 293 293 293 294 294 294 294 294 294 295 295 294 294 294 294 294 294 293 293 293 293 292 292 291 291 290 289 289 288 287 286 286 285 285 284 283 283 282 282 281 280 280 279
231 236 240 245 249 253 257 260 263 266 268 270 272 273 271 268 264 260 260 265 275 286 295 302 306 307 307 307 309 310 308 306 304 302 301 299 298 297 296 296 296 296 296 297 297 298 298 298 297 297 296 296 295 295 295 295 295 295 295 295 295 295 294 293 293 293 292 293 292 292 291 290 289 289 288 287 286 285 285 284 284 283 283 282 282 282 281 281
235 240 245 249 253 256 259 261 263 266 267 267 265 261 255 252 251 257 272 285 299 307 309 311 312 311 311 309 308 305 302 299 298 297 297 297 297 298 298 299 299 300 301 301 300 300 299 298 298 297 297 297 297 297 297 297 296 296 295 294 294 293 293 293 292 292 291 291 291 291 290 290 290 289 289 288 287 286 285 284 284 284 284 284 283 283 283 282
239 243 247 250 252 255 256 257 258 258 256 252 246 240 239 246 263 285 301 308 314 316 315 314 312 308 306 303 300 299 298 298 298 298 299 299 300 301 302 303 303 302 301 300 299 299 299 300 300 300 300 300 300 299 298 297 297 296 295 295 294 294 294 293 293 293 292 292 291 291 291 291 291 291 290 290 289 288 287 287 287 286 286 286 286 285 285 284
236 237 239 240 241 240 239 237 235 228 224 222 222 227 252 295 308 311 316 317 316 313 310 306 303 300 299 298 298 298 298 299 301 302 303 304 305 305 304 303 302 302 301 302 302 303 303 303 302 302 302 302 302 301 300 300 299 299 298 298 298 297 297 297 297 296 296 296 295 294 294 293 293 292 291 290 289 288 288 288 288 287 287 286 286 286 285 285
212 210 206 201 194 184 175 173 176 180 183 194 235 310 322 324 321 318 315 311 307 304 301 299 299 299 298 299 299 301 303 305 306 307 307 307 306 304 304 304 305 306 306 306 306 306 306 305 305 306 306 306 306 305 304 303 302 302 302 301 301 301 300 298 298 298 297 297 296 295 295 294 293 291 290 289 288 288 289 288 288 287 287 286 286 286 286 286
163 153 145 141 138 137 137 137 133 125 93 354 338 331 327 321 315 310 305 302 300 300 299 299 300 301 302 304 306 308 310 310 309 308 307 306 306 307 308 309 310 310 310 310 310 310 310 310 310 310 310 309 308 307 306 306 306 306 305 305 304 303 302 301 299 299 298 298 297 296 296 295 294 293 291 290 290 290 290 289 289 288 288 287 287 287 287 287
128 124 122 121 118 116 108 95 71 34 2 344 332 323 316 310 306 304 303 301 301 301 302 303 305 307 309 311 312 311 311 310 309 309 310 312 314 315 315 315 315 314 314 314 314 313 313 312 312 311 310 309 308 308 307 307 307 307 307 307 307 306 305 304 303 302 301 300 300 299 298 298 296 295 293 292 293 292 291 290 290 289 289 289 289 288 288 288
115 112 108 103 96 88 71 50 24 359 339 325 317 312 309 307 307 307 306 306 306 307 309 310 312 314 314 314 314 314 313 314 314 316 319 321 321 321 320 320 319 318 318 317 316 315 314 313 312 311 311 311 310 309 309 308 308 309 309 309 308 307 306 305 304 302 301 300 299 299 299 298 297 294 293 293 293 292 291 291 291 291 290 290 290 290 290 290
104 100 95 87 75 61 40 15 350 332 319 313 313 314 314 313 312 312 313 314 314 315 316 317 317 317 317 317 318 319 319 322 323 325 326 325 324 325 324 323 321 320 319 318 317 316 316 315 314 314 314 313 313 313 312 311 311 311 310 309 308 307 306 304 303 303 302 300 299 300 299 299 298 294 293 293 293 292 292 293 292 292 292 292 292 292 291 290
95 89 82 72 57 39 12 347 332 323 319 320 321 321 320 319 320 322 321 319 319 320 320 319 320 320 321 322 324 326 327 330 331 330 329 329 328 328 326 324 323 322 321 321 320 319 319 319 318 318 317 316 316 316 315 313 313 312 311 310 308 307 306 305 304 303 303 301 300 300 299 300 300 295 293 294 293 293 294 294 293 293 292 292 292 291 290 290
87 81 72 58 38 16 353 343 337 333 332 331 329 328 329 331 330 327 322 321 322 324 323 323 325 327 329 331 333 335 335 335 335 334 333 333 332 330 330 329 328 327 327 326 326 325 324 323 323 322 320 320 319 318 317 315 315 314 313 312 310 309 308 307 306 305 304 303 302 301 300 301 300 296 294 294 293 294 294 293 292 292 291 291 290 290 289 289
79 68 51 33 16 4 354 348 344 343 342 340 338 338 337 333 328 322 323 327 329 329 330 332 335 337 339 340 340 340 339 339 339 338 338 337 337 337 337 336 335 334 333 332 331 329 328 328 326 326 324 323 321 320 319 319 318 316 315 314 313 312 311 309 308 307 307 306 304 303 302 302 299 296 295 295 295 294 294 293 292 291 291 290 289 289 289 288
52 38 26 15 7 1 355 352 350 349 348 346 344 340 333 326 324 326 331 334 334 335 338 340 342 343 344 344 343 343 344 343 343 342 343 344 345 345 344 342 341 340 338 336 335 333 332 331 330 328 326 325 324 323 322 321 320 318 316 315 314 313 312 311 310 309 309 308 305 303 302 301 299 297 296 297 296 296 295 294 293 292 292 291 291 291 290 289
32 24 16 9 5 1 358 356 353 351 349 346 342 334 329 331 334 337 338 339 339 343 346 346 347 348 348 348 349 349 348 348 349 350 351 352 351 350 349 347 345 343 341 339 337 335 333 332 331 330 329 328 327 326 325 324 323 321 319 317 315 314 312 310 309 308 308 307 304 302 302 301 300 299 300 300 299 299 299 298 296 295 294 295 294 293 293 292
25 18 12 8 5 3 360 356 352 351 349 343 338 336 340 345 346 343 343 346 348 351 352 352 353 353 353 353 353 352 352 353 355 356 356 355 353 351 350 348 346 345 343 340 338 336 335 335 334 333 332 330 329 328 327 326 325 322 320 318 316 314 312 310 308 308 308 308 308 307 306 305 303 303 304 304 303 302 301 300 298 298 299 299 299 298 298 296
21 16 11 7 5 3 358 354 353 351 345 342 343 349 354 353 349 349 352 355 357 358 359 359 358 357 357 357 356 356 357 359 359 358 356 354 351 350 350 350 349 348 346 343 341 340 338 338 337 335 333 332 331 331 329 328 326 325 324 322 321 320 319 319 317 316 316 315 315 314 312 310 307 306 307 307 306 305 304 302 302 303 304 303 302 302 300 298
19 15 9 7 5 360 356 356 354 348 346 349 356 1 2 357 355 359 2 4 4 4 4 3 2 1 0 0 1 2 2 1 360 357 354 352 351 351 351 351 351 350 349 347 345 342 340 340 339 338 337 336 336 336 334 333 332 331 330 328 328 328 328 327 326 324 323 323 322 319 318 315 311 310 311 312 312 311 310 309 309 310 309 308 307 305 302 298
18 13 8 7 2 358 359 357 351 350 356 2 7 8 5 3 6 10 10 10 9 8 6 4 4 4 5 6 6 5 3 360 358 355 354 353 353 353 353 353 352 351 350 349 346 344 342 342 343 342 341 341 342 341 340 338 336 335 334 333 332 332 331 330 328 327 326 327 326 324 322 318 315 315 318 318 318 316 315 316 317 316 314 312 310 307 302 298
16 11 8 6 2 2 2 355 354 2 8 11 14 13 11 13 16 16 15 14 12 10 8 7 7 8 9 10 8 4 0 358 357 355 355 355 354 354 354 354 353 352 351 350 348 347 345 344 345 345 344 345 345 344 342 340 338 338 336 335 335 334 332 330 328 327 327 328 328 327 326 321 318 319 322 322 321 319 319 320 320 318 316 314 310 305 301 298
14 9 7 6 5 6 1 358 7 14 14 17 19 17 18 21 21 20 19 17 15 12 12 12 12 12 11 9 5 2 359 357 357 357 356 355 354 354 354 354 354 353 352 351 349 349 347 346 346 346 345 345 346 345 344 342 340 339 338 337 336 335 333 330 329 329 329 329 330 331 329 325 321 322 325 325 323 320 321 322 321 319 317 314 310 305 301 299
11 8 8 8 8 7 4 9 20 21 20 24 23 22 25 25 25 24 22 19 16 15 16 15 14 13 10 6 3 1 359 358 358 358 357 356 355 354 354 354 354 353 352 351 350 349 349 348 347 346 345 345 346 345 344 342 341 339 338 338 336 335 333 331 330 330 330 331 332 334 333 329 325 325 327 326 323 321 322 324 322 320 319 315 310 305 303 302
9 10 10 10 11 11 11 20 28 26 26 28 26 27 30 30 29 27 23 20 19 18 18 16 14 11 7 4 3 2 1 1 360 359 358 358 356 355 354 354 354 353 352 352 351 350 350 349 348 346 345 345 346 345 344 342 341 339 338 337 336 335 334 333 332 330 330 332 333 336 337 332 326 326 327 325 323 322 323 325 324 322 321 317 311 308 306 304
11 12 12 13 15 15 18 28 32 31 30 30 30 33 34 33 30 26 23 23 22 20 19 15 12 9 7 5 5 4 4 3 2 0 360 359 358 356 355 355 354 353 353 352 352 350 350 350 349 347 344 344 344 344 344 342 341 339 337 337 337 336 335 334 333 331 331 333 335 337 340 334 326 326 327 325 323 323 325 327 326 324 322 318 313 311 310 306
13 14 15 17 19 19 27 35 35 33 33 34 36 38 36 33 30 27 25 24 22 20 18 15 12 11 9 8 6 6 5 4 3 2 1 0 359 358 356 356 355 354 353 353 352 351 350 349 348 347 344 343 344 344 344 342 340 339 338 339 339 337 336 336 335 334 334 336 336 337 340 335 327 327 328 326 324 324 327 328 327 326 324 319 315 315 313 308
15 16 19 22 23 27 36 40 36 35 38 39 41 40 36 33 30 28 26 24 22 20 18 16 14 13 10 8 7 6 6 5 5 4 3 1 360 359 357 357 356 355 354 353 352 351 349 348 348 347 345 344 344 344 343 341 340 340 339 340 340 338 338 338 337 336 337 338 336 336 339 335 328 327 328 327 325 325 328 329 329 329 325 320 319 318 315 310
17 20 24 27 30 36 41 41 38 41 43 43 42 39 35 32 29 27 25 23 23 21 19 17 14 12 9 8 7 7 6 5 5 4 3 1 360 359 358 357 356 355 354 353 352 350 348 347 347 347 346 344 343 343 343 341 341 341 341 341 341 340 339 340 338 337 340 340 335 335 339 336 329 328 328 327 325 327 329 331 331 331 327 322 322 320 315 310
21 25 29 33 37 41 43 42 43 46 45 44 42 38 34 31 28 26 25 24 23 21 18 15 12 10 9 7 7 6 5 4 4 3 2 0 359 358 358 357 356 355 353 352 351 349 348 347 346 346 345 344 343 343 344 344 343 343 342 341 342 341 340 341 339 337 341 342 336 334 337 337 332 330 330 328 327 328 330 332 333 333 328 324 323 320 314 310
26 31 35 38 42 44 44 46 48 48 46 44 41 36 32 29 26 25 24 24 22 19 15 13 11 10 8 7 6 5 4 4 3 2 1 360 359 358 357 356 355 354 353 351 351 350 349 348 346 346 345 345 345 345 345 346 345 344 343 342 343 342 342 342 339 338 343 344 338 335 336 337 335 333 331 329 328 329 331 334 336 333 328 326 324 320 316 312
33 37 39 42 45 47 48 50 51 49 46 43 38 33 30 28 26 24 23 22 20 16 14 12 10 9 7 6 5 4 4 3 2 1 360 359 358 357 356 356 355 354 352 351 351 350 349 349 347 346 346 345 345 345 346 346 345 344 343 343 343 342 343 343 339 338 343 344 341 338 336 337 338 337 334 331 330 331 332 336 337 332 328 329 326 323 320 316
39 42 44 46 48 50 52 53 52 49 45 40 35 32 30 27 25 23 22 20 17 14 12 10 9 8 7 5 5 4 3 2 1 0 359 358 357 356 355 355 354 353 352 351 350 349 349 349 348 347 346 346 346 345 346 346 344 344 343 343 344 343 344 343 339 339 342 342 342 342 339 339 340 340 337 333 331 331 333 337 337 332 331 332 329 327 325 321
44 46 47 48 51 54 56 55 52 47 42 37 33 31 29 27 25 23 20 18 15 13 11 9 7 7 6 5 5 3 2 1 360 359 358 357 356 355 355 354 353 353 352 350 349 349 349 349 349 348 347 347 346 345 345 346 345 344 344 344 344 343 343 344 340 340 342 342 343 344 343 342 343 342 339 334 330 329 333 339 339 335 335 335 332 331 329 326
47 49 49 50 54 57 57 55 50 44 38 35 32 30 28 26 24 22 18 16 14 12 10 8 7 7 6 5 4 3 2 1 359 358 357 356 356 355 354 354 353 352 351 350 349 349 349 349 349 349 348 347 347 345 345 346 345 344 344 345 344 343 343 344 341 341 344 344 344 345 345 345 344 343 341 336 330 330 336 342 340 338 338 336 334 333 331 329
51 51 51 54 57 58 57 53 46 39 35 33 31 29 27 25 23 20 16 14 13 11 10 9 7 6 5 4 3 2 1 360 359 358 358 358 357 356 355 354 354 353 352 351 350 349 349 349 349 349 348 347 346 345 345 346 345 345 344 344 344 344 345 343 341 342 346 347 347 347 345 345 344 343 342 339 332 331 339 344 341 339 338 336 335 335 333 332
54 54 55 58 59 58 55 49 41 36 33 32 30 28 26 23 21 18 16 14 13 12 11 9 7 6 5 4 3 2 1 0 0 1 1 1 359 358 357 356 355 354 353 353 351 350 349 348 348 348 347 346 346 345 345 346 346 344 344 345 345 345 346 345 342 344 347 348 349 349 346 345 343 342 343 342 334 332 339 345 341 339 338 335 335 336 334 333
57 56 58 62 60 55 51 44 38 35 33 31 29 27 25 23 20 18 16 15 14 13 11 10 9 7 6 5 4 4 4 4 5 5 4 3 2 0 359 358 357 356 355 354 353 351 349 348 348 347 347 346 346 345 345 345 345 344 345 347 347 347 348 348 345 346 348 347 348 348 346 345 343 342 344 345 339 334 338 343 341 340 339 335 334 335 334 334
Height
10724 10728 10731 10733 10735 10737 10739 10741 10742 10743 10745 10745 10745 10745 10745 10744 10744 10743 10742 10741 10740 10739 10738 10737 10736 10734 10733 10732 10731 10729 10727 10725 10724 10722 10720 10718 10716 10713 10711 10709 10707 10706 10704 10703 10701 10699 10697 10695 10692 10689 10686 10682 10680 10678 10675 10673 10669 10665 10661 10658 10654 10652 10649 10646 10643 10639 10636 10632 10629 10627 10624 10623 10620 10617 10617 10616 10617 10617 10615 10613 10610 10607 10607 10607 10606 10604 10602 10599
10724 10727 10730 10732 10734 10736 10738 10739 10740 10741 10742 10742 10742 10742 10742 10741 10741 10740 10739 10738 10737 10736 10735 10734 10733 10731 10730 10728 10727 10726 10724 10721 10719 10718 10716 10714 10712 10709 10707 10705 10703 10701 10699 10697 10695 10693 10690 10687 10685 10681 10678 10675 10672 10669 10667 10664 10660 10657 10653 10649 10646 10644 10642 10638 10634 10632 10628 10624 10622 10620 10618 10616 10613 10611 10610 10608 10607 10609 10607 10603 10600 10598 10597 10597 10596 10593 10591 10588
10723 10726 10729 10731 10732 10734 10736 10737 10738 10739 10739 10739 10739 10739 10739 10738 10738 10736 10735 10734 10733 10732 10731 10731 10730 10728 10726 10725 10723 10722 10719 10717 10714 10712 10710 10709 10707 10705 10703 10700 10698 10696 10694 10692 10689 10686 10683 10679 10677 10674 10670 10667 10664 10661 10659 10656 10653 10650 10646 10641 10639 10637 10634 10631 10628 10625 10622 10618 10616 10614 10612 10609 10607 10606 10605 10601 10598 10600 10599 10595 10591 10589 10588 10588 10587 10584 10581 10579
10722 10725 10727 10729 10731 10732 10734 10735 10736 10736 10737 10737 10736 10736 10736 10735 10734 10732 10732 10731 10730 10729 10728 10728 10726 10725 10723 10721 10719 10717 10715 10712 10710 10708 10705 10704 10702 10700 10698 10696 10693 10691 10688 10685 10682 10679 10675 10672 10669 10666 10663 10660 10657 10655 10652 10649 10646 10644 10640 10636 10632 10630 10628 10625 10623 10620 10616 10613 10611 10609 10606 10602 10601 10602 10599 10595 10592 10591 10591 10589 10585 10581 10578 10577 10576 10575 10573 10571
10721 10723 10725 10727 10729 10730 10732 10733 10734 10734 10734 10734 10734 10734 10733 10732 10730 10729 10729 10729 10728 10726 10725 10724 10723 10722 10720 10717 10715 10713 10711 10708 10706 10704 10701 10698 10696 10694 10692 10690 10688 10685 10682 10678 10675 10671 10668 10665 10662 10659 10657 10654 10652 10649 10647 10644 10641 10639 10635 10631 10628 10625 10623 10620 10617 10614 10611 10609 10607 10605 10600 10595 10596 10597 10593 10590 10587 10584 10583 10581 10579 10575 10571 10568 10567 10566 10565 10564
10719 10722 10724 10725 10727 10728 10730 10731 10732 10732 10732 10731 10731 10730 10729 10728 10727 10727 10726 10725 10724 10723 10722 10721 10720 10718 10716 10713 10711 10709 10707 10704 10702 10699 10696 10694 10691 10689 10687 10684 10681 10678 10675 10671 10668 10665 10662 10659 10656 10654 10651 10649 10646 10644 10641 10639 10636 10633 10630 10627 10623 10619 10617 10615 10612 10608 10605 10603 10603 10600 10595 10590 10590 10589 10587 10584 10581 10579 10576 10574 10571 10568 10565 10562 10559 10558 10557 10556
10718 10720 10722 10723 10725 10727 10728 10729 10729 10730 10729 10728 10727 10726 10726 10725 10725 10724 10723 10722 10722 10721 10719 10718 10716 10714 10712 10709 10707 10705 10703 10700 10697 10695 10692 10689 10686 10684 10681 10678 10675 10671 10668 10665 10662 10659 10657 10654 10652 10649 10647 10644 10642 10639 10636 10634 10631 10628 10625 10621 10618 10614 10611 10608 10606 10602 10599 10598 10598 10597 10591 10585 10583 10581 10580 10578 10575 10572 10570 10567 10564 10562 10558 10556 10553 10551 10549 10547
10717 10719 10720 10722 10724 10725 10726 10727 10727 10726 10726 10724 10724 10723 10723 10723 10722 10722 10721 10720 10718 10717 10716 10714 10712 10710 10707 10705 10703 10700 10698 10695 10692 10690 10687 10684 10681 10678 10675 10671 10668 10665 10663 10660 10657 10655 10652 10650 10647 10645 10642 10640 10637 10635 10632 10629 10627 10623 10619 10616 10612 10608 10605 10603 10600 10596 10593 10592 10594 10593 10588 10581 10577 10573 10571 10569 10566 10564 10562 10560 10558 10555 10552 10549 10546 10543 10541 10538
10715 10717 10719 10720 10722 10723 10724 10724 10723 10723 10722 10721 10721 10721 10721 10720 10720 10719 10718 10717 10715 10714 10712 10710 10708 10705 10703 10701 10698 10696 10693 10690 10687 10684 10681 10678 10675 10672 10669 10666 10663 10660 10658 10656 10653 10651 10648 10646 10643 10641 10638 10636 10633 10630 10628 10625 10622 10619 10615 10611 10608 10603 10600 10598 10595 10592 10588 10586 10588 10589 10584 10577 10572 10567 10563 10560 10557 10555 10553 10552 10551 10548 10545 10542 10538 10535 10532 10529
10714 10715 10717 10719 10720 10721 10721 10720 10720 10719 10719 10718 10719 10718 10718 10718 10717 10716 10715 10713 10712 10710 10708 10706 10703 10701 10699 10697 10694 10691 10688 10685 10681 10678 10675 10672 10670 10667 10664 10662 10659 10656 10654 10651 10649 10647 10644 10642 10639 10637 10634 10632 10629 10626 10623 10620 10618 10615 10611 10607 10603 10599 10596 10593 10589 10586 10582 10579 10580 10582 10579 10572 10565 10560 10555 10551 10549 10547 10545 10543 10541 10539 10536 10533 10529 10526 10522 10519
10712 10714 10715 10717 10718 10718 10718 10717 10716 10716 10717 10717 10717 10716 10716 10715 10714 10713 10711 10710 10708 10706 10704 10702 10699 10697 10695 10692 10689 10686 10682 10679 10676 10673 10670 10668 10666 10663 10661 10658 10656 10653 10650 10648 10646 10643 10641 10638 10636 10633 10631 10628 10625 10622 10619 10615 10613 10610 10607 10603 10598 10593 10589 10586 10583 10579 10575 10572 10571 10572 10572 10567 10559 10551 10546 10543 10540 10538 10535 10532 10529 10527 10525 10522 10519 10515 10512 10509
10711 10712 10713 10714 10715 10715 10714 10714 10714 10715 10715 10715 10714 10714 10713 10712 10710 10709 10707 10706 10704 10702 10700 10697 10695 10692 10689 10686 10683 10680 10677 10674 10671 10669 10666 10664 10663 10660 10658 10655 10653 10650 10647 10645 10642 10640 10638 10635 10632 10630 10627 10624 10621 10617 10614 10610 10607 10603 10600 10597 10593 10588 10583 10578 10576 10572 10568 10565 10563 10562 10563 10560 10552 10544 10538 10534 10532 10528 10525 10522 10518 10515 10512 10509 10507 10504 10500 10497
10709 10710 10711 10711 10712 10712 10712 10712 10712 10713 10712 10712 10711 10710 10709 10708 10707 10705 10704 10702 10700 10697 10695 10692 10690 10687 10684 10681 10678 10676 10673 10671 10668 10666 10664 10662 10660 10658 10655 10653 10650 10647 10645 10642 10639 10637 10635 10632 10629 10625 10622 10620 10616 10613 10609 10604 10600 10596 10592 10588 10584 10581 10578 10573 10567 10564 10560 10557 10554 10552 10552 10551 10544 10537 10531 10526 10521 10517 10514 10511 10508 10504 10500 10496 10493 10490 10487 10484
10706 10707 10708 10709 10709 10709 10710 10710 10710 10710 10710 10709 10708 10707 10706 10705 10703 10701 10699 10697 10695 10693 10690 10687 10685 10682 10680 10677 10675 10672 10670 10668 10666 10664 10661 10659 10657 10655 10652 10650 10647 10645 10642 10639 10636 10634 10631 10628 10625 10621 10617 10614 10610 10607 10603 10599 10594 10590 10585 10580 10575 10571 10567 10565 10560 10555 10551 10548 10545 10542 10540 10539 10535 10529 10524 10518 10511 10505 10501 10497 10494 10490 10486 10483 10479 10476 10473 10471
10704 10705 10706 10707 10707 10707 10708 10708 10708 10707 10707 10706 10705 10704 10703 10701 10699 10697 10695 10693 10690 10688 10686 10683 10681 10679 10676 10674 10672 10670 10668 10666 10664 10662 10659 10657 10654 10652 10650 10647 10645 10642 10639 10636 10633 10629 10626 10623 10619 10616 10612 10608 10604 10600 10596 10592 10588 10584 10579 10573 10568 10563 10557 10553 10551 10547 10542 10538 10534 10531 10527 10525 10522 10517 10512 10507 10500 10494 10488 10483 10479 10475 10471 10467 10464 10460 10458 10456
10702 10703 10704 10704 10705 10705 10705 10705 10705 10705 10704 10703 10702 10700 10699 10697 10695 10693 10691 10689 10687 10685 10682 10680 10678 10676 10674 10672 10670 10668 10666 10664 10662 10659 10657 10655 10652 10650 10647 10644 10642 10639 10635 10632 10628 10625 10621 10617 10614 10610 10606 10601 10597 10593 10589 10584 10581 10577 10573 10568 10562 10556 10551 10544 10539 10536 10532 10528 10524 10520 10516 10512 10508 10504 10499 10494 10488 10482 10476 10470 10465 10461 10456 10452 10448 10445 10442 10440
10700 10701 10702 10702 10703 10703 10703 10703 10702 10702 10701 10699 10698 10696 10695 10693 10691 10689 10688 10686 10684 10682 10680 10679 10677 10675 10673 10670 10668 10666 10664 10661 10659 10657 10654 10652 10649 10647 10644 10641 10638 10634 10631 10627 10623 10619 10615 10611 10607 10603 10599 10594 10590 10586 10582 10577 10572 10567 10562 10559 10553 10546 10543 10538 10531 10524 10520 10516 10513 10509 10505 10501 10496 10491 10486 10481 10476 10470 10464 10458 10452 10447 10442 10437 10432 10429 10426 10424
10699 10700 10700 10700 10701 10701 10700 10700 10699 10698 10697 10696 10694 10693 10691 10690 10688 10687 10685 10684 10682 10681 10679 10677 10675 10673 10671 10669 10666 10664 10662 10659 10656 10654 10651 10648 10646 10643 10640 10637 10633 10630 10626 10622 10618 10613 10609 10605 10600 10595 10591 10587 10583 10579 10575 10570 10565 10561 10555 10551 10546 10537 10531 10529 10524 10518 10512 10508 10502 10498 10495 10490 10485 10480 10475 10470 10464 10459 10453 10446 10440 10434 10429 10423 10418 10415 10412 10409
10697 10697 10698 10698 10698 10698 10697 10697 10696 10695 10694 10692 10691 10690 10689 10688 10687 10685 10684 10683 10681 10679 10678 10675 10673 10671 10669 10667 10664 10662 10659 10657 10654 10651 10648 10645 10642 10639 10636 10632 10628 10625 10620 10616 10611 10606 10602 10598 10593 10588 10584 10580 10576 10572 10568 10563 10558 10554 10549 10544 10541 10534 10524 10519 10515 10510 10506 10502 10496 10490 10486 10480 10475 10469 10463 10457 10451 10446 10440 10435 10429 10423 10417 10411 10405 10401 10398 10393
10695 10695 10695 10696 10696 10695 10695 10694 10693 10692 10691 10691 10690 10689 10688 10687 10686 10685 10683 10682 10680 10678 10676 10674 10671 10669 10667 10665 10662 10659 10656 10654 10651 10648 10645 10642 10638 10635 10631 10627 10623 10619 10614 10610 10605 10600 10596 10591 10586 10581 10577 10573 10569 10564 10560 10555 10550 10546 10541 10535 10532 10529 10520 10511 10507 10501 10496 10494 10489 10483 10478 10471 10464 10458 10451 10444 10437 10430 10425 10421 10416 10411 10405 10398 10392 10387 10381 10376
10693 10693 10694 10694 10693 10693 10693 10692 10692 10691 10691 10690 10689 10689 10687 10686 10685 10684 10682 10680 10678 10676 10674 10672 10669 10667 10664 10662 10659 10657 10654 10651 10648 10645 10641 10638 10634 10630 10626 10622 10617 10613 10608 10604 10599 10595 10590 10585 10580 10575 10571 10566 10562 10557 10552 10548 10542 10537 10533 10528 10523 10520 10514 10504 10497 10491 10485 10481 10477 10473 10469 10462 10454 10447 10439 10430 10423 10416 10411 10406 10401 10396 10390 10384 10378 10372 10366 10360
10692 10692 10692 10692 10692 10692 10692 10692 10692 10691 10691 10690 10689 10688 10687 10686 10684 10682 10681 10678 10677 10674 10672 10669 10667 10664 10662 10659 10657 10654 10651 10648 10644 10640 10636 10632 10628 10624 10620 10616 10611 10607 10602 10597 10593 10589 10584 10579 10574 10570 10565 10560 10555 10549 10543 10539 10535 10529 10524 10520 10514 10509 10506 10499 10489 10481 10474 10469 10464 10460 10458 10452 10444 10436 10427 10417 10410 10404 10399 10393 10386 10381 10375 10369 10362 10356 10351 10345
10691 10691 10692 10692 10692 10692 10692 10692 10691 10691 10690 10690 10689 10688 10686 10685 10683 10681 10679 10676 10674 10672 10669 10667 10665 10662 10659 10657 10654 10651 10647 10644 10640 10636 10632 10628 10623 10619 10615 10610 10606 10601 10596 10592 10588 10583 10578 10574 10569 10564 10559 10554 10548 10542 10535 10529 10524 10520 10514 10510 10504 10498 10494 10490 10483 10474 10465 10457 10451 10448 10446 10441 10432 10423 10413 10403 10398 10392 10385 10378 10372 10366 10359 10353 10347 10340 10335 10330
10692 10692 10693 10693 10693 10693 10692 10692 10691 10691 10690 10689 10688 10687 10685 10683 10681 10679 10676 10674 10672 10670 10668 10665 10663 10660 10657 10654 10651 10647 10644 10640 10636 10632 10628 10623 10618 10613 10609 10605 10601 10596 10591 10587 10582 10577 10573 10568 10563 10558 10553 10548 10542 10535 10528 10521 10515 10510 10504 10499 10494 10487 10480 10475 10471 10465 10457 10447 10438 10433 10434 10432 10422 10410 10399 10390 10385 10378 10370 10364 10357 10351 10345 10338 10331 10325 10320 10314
10692 10693 10693 10694 10693 10693 10693 10692 10692 10691 10690 10689 10687 10685 10683 10681 10678 10676 10674 10672 10670 10668 10666 10663 10660 10657 10654 10651 10647 10643 10639 10635 10631 10627 10623 10619 10614 10610 10605 10600 10596 10592 10587 10582 10577 10572 10567 10562 10556 10551 10546 10540 10535 10529 10523 10516 10509 10502 10496 10490 10484 10478 10472 10465 10459 10455 10449 10440 10430 10421 10419 10422 10417 10402 10387 10379 10373 10364 10356 10350 10344 10337 10330 10323 10316 10310 10304 10297
10694 10694 10694 10694 10694 10694 10693 10692 10691 10690 10689 10687 10685 10683 10681 10679 10677 10675 10672 10670 10668 10666 10663 10660 10657 10654 10650 10647 10643 10639 10635 10631 10627 10623 10620 10616 10612 10607 10602 10597 10592 10587 10582 10577 10572 10567 10561 10556 10549 10543 10538 10532 10526 10521 10514 10508 10502 10496 10490 10484 10477 10471 10465 10458 10451 10445 10439 10430 10421 10412 10404 10405 10407 10394 10377 10367 10359 10350 10342 10336 10330 10322 10314 10307 10300 10294 10287 10279
10695 10695 10695 10695 10694 10694 10693 10692 10690 10689 10687 10685 10683 10681 10679 10677 10675 10673 10670 10668 10666 10663 10660 10657 10654 10650 10647 10643 10639 10635 10632 10628 10624 10620 10616 10612 10608 10604 10599 10594 10588 10583 10578 10573 10567 10561 10556 10550 10543 10536 10530 10525 10519 10514 10507 10501 10497 10492 10486 10479 10472 10465 10457 10450 10443 10436 10430 10420 10409 10401 10392 10389 10391 10379 10364 10356 10345 10336 10330 10322 10314 10306 10298 10292 10285 10278 10270 10262
10696 10695 10695 10695 10694 10693 10692 10690 10689 10687 10685 10682 10680 10678 10676 10674 10673 10671 10669 10666 10663 10660 10657 10654 10650 10647 10643 10639 10635 10632 10629 10625 10621 10617 10613 10608 10604 10600 10596 10591 10585 10579 10574 10568 10562 10556 10550 10544 10538 10531 10524 10517 10512 10507 10502 10496 10490 10484 10478 10471 10464 10458 10450 10442 10435 10427 10421 10412 10399 10390 10380 10376 10377 10364 10349 10343 10333 10325 10320 10311 10302 10294 10286 10279 10271 10263 10256 10248
10696 10695 10695 10694 10693 10691 10690 10688 10686 10684 10682 10680 10679 10677 10675 10673 10671 10669 10666 10663 10660 10657 10654 10650 10647 10644 10640 10637 10634 10631 10627 10623 10619 10615 10611 10607 10602 10597 10591 10586 10581 10576 10569 10563 10557 10551 10545 10539 10533 10527 10519 10512 10505 10499 10495 10489 10482 10477 10471 10464 10455 10448 10442 10433 10426 10420 10413 10404 10390 10380 10370 10360 10358 10352 10339 10331 10323 10315 10309 10300 10291 10283 10274 10266 10259 10252 10244 10236
10694 10694 10693 10692 10691 10689 10688 10686 10684 10682 10681 10679 10678 10676 10673 10671 10669 10666 10663 10660 10657 10654 10651 10648 10645 10642 10639 10636 10632 10628 10624 10621 10617 10613 10609 10603 10597 10591 10585 10579 10573 10568 10563 10557 10552 10545 10540 10534 10529 10522 10515 10508 10499 10492 10487 10481 10475 10469 10463 10458 10451 10444 10436 10427 10419 10413 10408 10400 10384 10373 10366 10350 10339 10337 10331 10323 10313 10304 10296 10287 10278 10269 10259 10252 10245 10237 10229 10222
10693 10692 10691 10690 10689 10687 10686 10684 10683 10681 10680 10678 10676 10674 10671 10668 10665 10663 10660 10658 10655 10652 10650 10647 10644 10640 10637 10633 10630 10626 10622 10619 10614 10609 10604 10598 10592 10586 10579 10573 10566 10560 10554 10549 10544 10540 10536 10531 10525 10519 10511 10504 10497 10488 10481 10475 10468 10460 10454 10450 10446 10441 10435 10426 10417 10411 10405 10395 10378 10367 10363 10347 10327 10320 10318 10312 10302 10292 10282 10271 10261 10252 10245 10237 10229 10219 10211 10204
10692 10691 10690 10689 10687 10686 10685 10683 10682 10680 10678 10676 10674 10671 10668 10665 10663 10661 10659 10656 10654 10651 10648 10645 10641 10638 10634 10631 10628 10625 10622 10618 10613 10607 10602 10597 10592 10588 10582 10577 10571 10563 10556 10548 10541 10535 10529 10524 10519 10513 10507 10501 10495 10487 10478 10470 10462 10454 10447 10441 10436 10434 10431 10424 10416 10411 10404 10391 10372 10357 10352 10342 10322 10309 10305 10298 10289 10280 10269 10256 10245 10237 10229 10221 10210 10201 10194 10186
10691 10690 10689 10687 10686 10685 10684 10682 10680 10678 10676 10674 10671 10668 10666 10664 10662 10660 10657 10655 10652 10649 10646 10642 10639 10636 10633 10630 10627 10624 10620 10615 10611 10606 10601 10597 10592 10587 10582 10577 10570 10564 10557 10549 10540 10532 10526 10521 10515 10510 10503 10497 10491 10485 10475 10467 10458 10447 10437 10428 10420 10414 10410 10405 10397 10394 10391 10383 10367 10349 10336 10326 10313 10303 10296 10288 10279 10269 10257 10245 10235 10226 10216 10206 10195 10185 10176 10167
10690 10689 10688 10687 10686 10684 10683 10681 10679 10677 10674 10672 10669 10667 10665 10663 10661 10659 10656 10653 10650 10647 10645 10642 10639 10636 10633 10630 10626 10622 10617 10613 10609 10604 10600 10595 10589 10583 10577 10572 10566 10560 10554 10546 10538 10530 10524 10520 10514 10506 10499 10492 10484 10476 10466 10457 10448 10438 10425 10414 10404 10394 10387 10380 10371 10364 10363 10363 10355 10339 10322 10305 10291 10288 10283 10272 10262 10251 10241 10233 10224 10215 10204 10192 10183 10172 10159 10148
10690 10689 10688 10687 10685 10684 10681 10679 10677 10675 10672 10670 10668 10666 10664 10662 10660 10657 10654 10652 10649 10646 10644 10642 10640 10637 10633 10629 10624 10620 10615 10611 10608 10603 10597 10592 10586 10581 10575 10569 10563 10557 10551 10543 10535 10526 10517 10512 10507 10499 10491 10485 10477 10468 10457 10447 10438 10429 10417 10405 10394 10384 10375 10367 10357 10347 10340 10339 10335 10325 10312 10288 10267 10266 10265 10254 10243 10231 10221 10216 10208 10198 10189 10178 10170 10159 10145 10133
10690 10689 10688 10686 10684 10682 10680 10678 10675 10673 10671 10669 10667 10665 10664 10661 10658 10656 10653 10651 10649 10646 10644 10641 10638 10634 10630 10626 10622 10618 10614 10610 10605 10600 10594 10588 10583 10578 10571 10566 10560 10554 10547 10540 10533 10525 10514 10505 10498 10491 10482 10476 10469 10459 10449 10439 10429 10420 10409 10397 10386 10375 10365 10356 10350 10343 10333 10326 10322 10312 10301 10278 10251 10247 10248 10237 10225 10214 10206 10203 10194 10184 10177 10167 10157 10145 10132 10121
10690 10689 10687 10685 10682 10680 10678 10676 10673 10671 10670 10668 10666 10665 10662 10660 10658 10655 10653 10651 10648 10646 10643 10639 10636 10632 10629 10625 10621 10617 10612 10608 10603 10597 10592 10586 10579 10574 10568 10562 10556 10549 10543 10535 10528 10520 10511 10500 10491 10484 10475 10468 10462 10453 10443 10431 10419 10409 10400 10390 10379 10367 10355 10341 10332 10329 10323 10316 10312 10302 10288 10265 10238 10228 10226 10218 10206 10196 10193 10190 10181 10171 10163 10154 10143 10130 10119 10110
10689 10687 10685 10682 10680 10678 10676 10674 10672 10671 10669 10667 10666 10664 10662 10660 10657 10655 10653 10651 10648 10645 10642 10638 10635 10632 10628 10625 10621 10616 10611 10606 10601 10595 10590 10584 10577 10570 10564 10558 10551 10544 10537 10530 10522 10514 10507 10498 10487 10477 10469 10461 10453 10444 10435 10424 10413 10402 10391 10382 10371 10360 10349 10333 10316 10306 10301 10296 10295 10291 10277 10251 10227 10216 10210 10201 10189 10178 10178 10176 10166 10156 10148 10138 10127 10117 10109 10100
10688 10685 10683 10681 10679 10677 10676 10673 10672 10670 10668 10667 10666 10664 10661 10659 10657 10656 10654 10651 10647 10644 10641 10638 10634 10631 10627 10624 10620 10616 10611 10605 10600 10594 10588 10581 10574 10567 10560 10553 10546 10539 10532 10524 10517 10508 10501 10493 10483 10471 10462 10454 10447 10438 10429 10419 10408 10397 10386 10377 10367 10354 10342 10331 10315 10298 10288 10281 10276 10275 10267 10241 10215 10208 10202 10189 10177 10166 10163 10163 10153 10143 10135 10123 10110 10102 10098 10090
10686 10684 10682 10680 10678 10677 10676 10673 10671 10670 10669 10668 10666 10664 10661 10660 10658 10656 10653 10650 10647 10644 10640 10637 10634 10630 10626 10622 10618 10614 10609 10603 10597 10591 10585 10578 10571 10563 10556 10549 10541 10534 10527 10519 10511 10502 10494 10487 10479 10469 10457 10448 10440 10432 10422 10411 10400 10391 10382 10372 10361 10347 10335 10325 10314 10298 10281 10270 10260 10255 10254 10233 10205 10198 10193 10178 10165 10156 10151 10148 10140 10130 10122 10111 10098 10089 10085 10079
10685 10683 10681 10680 10679 10678 10674 10671 10671 10671 10670 10668 10666 10664 10662 10660 10658 10656 10653 10650 10647 10643 10640 10636 10633 10629 10625 10620 10615 10611 10606 10600 10594 10588 10581 10574 10567 10560 10552 10544 10537 10529 10521 10513 10505 10497 10488 10481 10474 10465 10454 10444 10435 10425 10415 10404 10394 10384 10374 10363 10352 10338 10326 10313 10302 10290 10274 10260 10248 10241 10239 10222 10193 10182 10180 10166 10151 10144 10141 10137 10130 10120 10110 10099 10089 10079 10072 10067
10684 10683 10681 10680 10679 10676 10673 10673 10673 10672 10670 10668 10666 10664 10662 10661 10658 10656 10652 10649 10646 10643 10639 10636 10632 10628 10623 10618 10613 10608 10602 10597 10591 10584 10577 10570 10563 10556 10548 10540 10532 10524 10516 10508 10500 10491 10483 10476 10468 10459 10447 10435 10427 10419 10410 10400 10390 10380 10367 10355 10343 10329 10316 10301 10286 10275 10266 10253 10241 10236 10237 10222 10191 10172 10167 10156 10141 10133 10131 10126 10119 10111 10099 10088 10081 10073 10063 10055
10684 10683 10681 10680 10678 10675 10674 10675 10674 10671 10670 10669 10666 10664 10663 10661 10658 10655 10652 10649 10646 10642 10639 10635 10631 10626 10621 10616 10611 10605 10599 10593 10587 10581 10574 10567 10560 10551 10543 10535 10527 10519 10510 10502 10494 10485 10476 10468 10462 10456 10446 10434 10423 10415 10407 10394 10381 10371 10359 10348 10337 10322 10310 10298 10280 10266 10259 10248 10230 10224 10229 10221 10195 10172 10161 10148 10134 10125 10121 10116 10110 10103 10091 10078 10071 10066 10058 10049
10684 10682 10681 10679 10678 10676 10676 10675 10673 10672 10671 10668 10666 10665 10664 10661 10658 10655 10652 10649 10645 10642 10638 10634 10630 10625 10619 10614 10608 10603 10597 10590 10584 10578 10570 10563 10555 10547 10539 10531 10522 10514 10505 10497 10489 10479 10468 10457 10449 10444 10438 10429 10420 10410 10400 10387 10370 10357 10346 10336 10326 10313 10301 10291 10276 10262 10258 10250 10226 10209 10212 10212 10192 10168 10152 10136 10123 10117 10113 10107 10100 10092 10083 10073 10065 10058 10051 10044
10683 10682 10681 10680 10678 10678 10677 10675 10674 10673 10671 10669 10667 10666 10664 10661 10658 10655 10652 10648 10645 10641 10637 10633 10628 10623 10617 10611 10606 10599 10593 10587 10580 10574 10567 10559 10551 10542 10534 10527 10518 10509 10500 10491 10482 10472 10462 10450 10437 10426 10417 10407 10397 10387 10378 10369 10358 10346 10335 10323 10313 10302 10290 10278 10265 10254 10251 10247 10228 10202 10193 10197 10186 10163 10143 10125 10112 10106 10103 10099 10092 10082 10074 10067 10059 10051 10044 10037
10684 10683 10682 10680 10679 10678 10677 10676 10674 10673 10672 10670 10669 10666 10664 10661 10658 10655 10652 10648 10645 10641 10637 10632 10626 10621 10615 10609 10603 10597 10590 10584 10577 10570 10562 10555 10547 10539 10530 10522 10513 10505 10495 10486 10477 10467 10458 10446 10432 10418 10407 10395 10384 10374 10364 10355 10346 10337 10326 10316 10305 10292 10280 10266 10250 10240 10237 10236 10228 10205 10180 10173 10168 10152 10130 10112 10099 10094 10091 10090 10086 10076 10067 10059 10051 10043 10036 10029
10685 10683 10682 10681 10680 10679 10678 10676 10675 10674 10672 10671 10669 10666 10664 10661 10657 10655 10652 10648 10645 10640 10636 10631 10625 10620 10615 10608 10602 10595 10587 10580 10573 10566 10558 10550 10543 10535 10527 10518 10509 10501 10491 10481 10472 10463 10453 10444 10432 10417 10404 10393 10382 10372 10362 10351 10338 10329 10319 10309 10297 10285 10276 10263 10243 10230 10225 10220 10216 10206 10182 10162 10153 10140 10118 10096 10083 10081 10082 10082 10076 10065 10058 10052 10043 10036 10029 10022
10685 10684 10683 10682 10681 10679 10678 10677 10676 10675 10673 10671 10669 10666 10663 10661 10658 10655 10652 10648 10644 10640 10635 10630 10625 10620 10615 10609 10602 10595 10587 10579 10570 10563 10555 10547 10539 10531 10523 10515 10506 10497 10488 10478 10469 10460 10450 10440 10430 10417 10402 10391 10379 10368 10361 10351 10336 10323 10312 10301 10289 10278 10270 10262 10242 10225 10218 10207 10195 10188 10175 10155 10140 10129 10113 10091 10072 10068 10072 10071 10063 10054 10046 10040 10034 10027 10021 10015
10685 10685 10684 10682 10682 10680 10679 10678 10677 10675 10673 10671 10669 10666 10663 10661 10658 10655 10651 10648 10644 10639 10635 10630 10624 10619 10614 10608 10602 10595 10589 10581 10573 10564 10556 10547 10538 10529 10521 10513 10504 10494 10486 10476 10465 10455 10445 10434 10425 10414 10401 10389 10378 10365 10355 10348 10336 10322 10309 10298 10288 10274 10261 10251 10238 10225 10215 10200 10181 10167 10157 10147 10133 10121 10109 10090 10067 10058 10061 10058 10049 10043 10039 10032 10026 10021 10014 10008
10686 10685 10684 10683 10683 10681 10680 10679 10677 10675 10673 10671 10669 10666 10663 10661 10658 10654 10651 10647 10643 10639 10634 10628 10623 10618 10612 10606 10600 10593 10586 10579 10572 10564 10555 10546 10537 10528 10519 10509 10501 10491 10481 10471 10460 10448 10439 10430 10420 10411 10399 10387 10377 10364 10351 10341 10330 10318 10307 10296 10285 10273 10258 10242 10226 10215 10208 10198 10182 10164 10148 10139 10130 10117 10104 10085 10059 10050 10056 10053 10041 10033 10029 10025 10021 10016 10009 10003
10686 10686 10686 10685 10684 10682 10681 10680 10678 10676 10674 10672 10669 10667 10664 10661 10658 10654 10651 10647 10642 10638 10632 10627 10621 10615 10609 10603 10597 10590 10583 10576 10568 10560 10552 10544 10534 10525 10516 10506 10496 10486 10476 10466 10456 10445 10436 10427 10419 10410 10398 10383 10371 10360 10349 10338 10325 10312 10304 10294 10281 10268 10257 10237 10212 10196 10187 10178 10173 10165 10149 10136 10127 10116 10107 10090 10062 10046 10051 10052 10041 10030 10021 10013 10010 10007 10002 9997
10687 10687 10686 10685 10684 10683 10681 10680 10679 10676 10674 10672 10669 10667 10664 10661 10658 10654 10650 10646 10641 10636 10631 10625 10620 10613 10607 10600 10594 10587 10580 10573 10566 10557 10549 10540 10531 10521 10512 10502 10492 10482 10472 10462 10453 10443 10433 10424 10414 10405 10395 10383 10368 10352 10339 10331 10323 10311 10295 10282 10269 10257 10249 10235 10210 10191 10179 10166 10157 10153 10144 10133 10122 10109 10101 10090 10062 10039 10037 10042 10037 10031 10022 10010 10002 9999 9994 9989